Presure
120 134 126 126 128 134 138 128 129 132 163 176 240 216 206 200 224 221 219 242 243 238 233 209 182 164 147 138 148 156 126 116 131 140 127 132 140 119 131 134 139 153 144 154 135 148 155 139 156
143 128 120 152 134 133 136 129 131 132 166 169 185 222 205 227 223 225 235 242 256 247 225 212 181 175 169 161 131 142 131 154 139 127 140 139 142 133 128 148 140 138 155 146 144 159 134 143 143
135 129 130 127 135 135 129 141 131 132 141 163 178 207 211 195 206 225 234 227 202 213 176 164 198 145 174 157 159 156 168 152 157 147 140 141 137 123 131 139 145 150 149 145 165 133 154 148 136
127 125 131 130 125 122 146 147 124 145 134 154 164 180 223 203 195 169 208 214 216 181 168 129 174 157 163 168 156 159 151 145 138 147 142 146 135 142 131 145 153 150 148 181 134 133 149 138 131
145 132 148 123 125 129 135 136 130 129 128 152 164 168 169 201 200 198 215 129 212 207 189 190 171 160 142 169 170 173 146 142 160 133 131 145 126 153 145 148 141 140 149 167 132 135 141 133 136
148 140 141 141 135 126 131 140 140 139 124 145 148 164 174 165 207 202 228 232 204 219 198 225 177 183 196 208 139 157 139 141 145 135 141 145 148 138 144 136 142 148 156 127 136 141 137 134 147
126 147 153 147 161 167 126 138 118 129 126 126 152 148 166 171 178 209 191 226 240 221 204 174 177 182 184 177 173 154 153 158 147 150 132 146 144 133 135 133 141 154 169 138 135 137 130 127 145
111 146 152 124 168 118 124 139 136 138 152 128 127 156 156 162 169 227 194 207 205 216 231 186 176 179 193 162 152 162 167 132 156 148 147 133 121 148 133 157 153 154 141 130 140 142 128 130 152
155 133 142 148 151 145 128 128 149 132 144 146 133 146 139 156 164 168 201 206 205 201 190 182 186 180 186 155 174 151 159 149 157 143 149 131 141 143 144 144 150 160 138 136 141 131 127 144 162
148 133 137 133 141 140 124 129 127 141 129 144 141 132 137 153 153 169 163 198 197 186 190 193 201 182 179 162 171 155 145 156 149 138 152 138 144 159 142 160 153 158 139 140 139 132 126 147 139
142 138 147 151 128 145 152 135 121 154 128 142 140 144 146 137 148 156 163 170 194 185 213 199 195 210 177 165 171 165 149 157 144 147 154 162 149 152 141 153 157 143 134 135 143 130 150 134 136
146 140 139 176 134 137 141 145 124 128 133 130 158 144 139 150 135 154 163 162 204 193 192 173 185 207 197 187 155 156 141 153 138 145 143 158 147 145 152 162 156 141 136 135 131 125 160 121 149
151 147 128 161 187 137 153 179 127 123 143 126 140 136 147 130 145 140 159 159 166 222 189 182 170 180 173 156 155 153 156 163 142 153 154 166 154 148 155 151 159 143 142 137 135 127 132 133 185
143 146 152 142 145 166 141 131 142 126 131 127 131 152 137 129 148 144 144 166 151 188 231 197 173 172 182 167 162 165 164 154 160 149 155 152 145 154 144 155 160 137 141 144 129 144 140 148 170
222 160 155 144 152 151 149 122 154 141 123 158 123 158 140 147 132 142 142 156 161 158 263 235 194 168 184 164 165 174 150 164 161 146 170 163 148 136 152 159 160 139 141 132 139 147 139 137 170
230 193 222 163 151 142 172 132 135 124 125 136 143 132 145 142 128 138 147 148 154 148 177 217 247 192 172 172 169 180 172 170 164 162 168 148 155 154 152 155 153 141 142 127 141 140 141 146 167
212 217 198 214 185 161 153 156 129 128 149 144 134 131 143 138 140 131 144 140 156 154 156 181 207 242 216 184 193 168 175 154 164 171 157 160 147 149 152 152 156 140 142 134 141 137 155 152 165
201 213 206 212 185 188 168 164 138 133 136 146 143 149 143 137 140 141 133 144 134 156 152 159 203 200 231 211 189 167 200 177 167 168 181 179 147 149 153 169 159 136 140 136 140 143 151 145 119
189 193 207 207 216 187 194 169 168 133 144 151 159 143 158 140 125 140 126 136 146 149 153 161 170 204 212 231 216 193 169 196 178 180 165 172 162 149 158 179 173 136 127 136 142 146 139 133 122
181 187 194 205 209 207 193 201 177 167 161 145 161 144 135 140 148 136 148 135 139 145 150 159 171 183 225 225 239 222 191 168 162 176 197 170 155 159 172 181 172 141 130 135 148 141 127 125 126
190 185 184 190 200 207 202 185 198 174 158 150 149 153 148 136 146 130 141 141 135 144 147 162 171 174 178 228 230 234 216 205 173 170 164 162 159 167 173 186 178 136 141 132 143 138 153 128 129
201 192 182 182 188 197 205 200 165 196 177 161 141 149 152 153 148 142 131 140 147 154 145 160 160 168 182 234 246 262 277 297 211 174 170 168 167 171 179 166 179 136 147 138 129 144 143 138 131
208 202 192 185 184 188 197 202 200 181 187 148 151 145 150 154 150 156 135 138 143 152 146 153 158 168 179 238 227 256 258 256 235 201 168 173 179 178 170 159 179 127 148 133 133 136 158 146 147
199 203 204 197 186 180 187 195 203 200 177 172 180 148 142 150 155 146 150 143 142 146 147 147 163 160 165 184 221 227 239 264 321 207 170 178 179 176 173 158 186 133 144 139 128 133 150 150 151
189 200 204 205 198 184 176 182 192 200 199 185 170 167 142 140 155 148 154 137 129 136 146 145 161 164 154 167 194 232 232 245 202 275 176 180 169 170 172 164 205 140 143 146 123 133 139 152 140
227 194 199 203 205 207 175 180 179 187 199 200 189 149 143 160 159 146 139 140 142 138 139 145 148 164 166 154 172 215 233 230 226 179 200 182 169 174 165 171 204 140 144 139 139 171 148 136 147
172 193 200 207 204 212 200 187 178 180 183 198 195 195 181 172 147 163 140 134 141 149 137 144 143 160 170 143 159 177 138 230 200 124 218 184 170 166 178 170 191 143 132 124 151 155 148 144 145
218 235 191 200 206 203 199 194 198 182 186 186 197 202 196 149 161 169 150 145 141 139 145 137 143 149 164 172 160 161 221 209 203 190 179 193 180 188 175 191 173 148 133 136 146 154 148 143 141
208 225 232 196 207 181 200 180 220 194 189 189 184 191 203 144 203 141 166 148 141 149 152 144 133 148 150 169 179 158 178 226 212 220 186 192 204 202 176 204 164 151 136 127 133 150 151 145 149
213 219 260 190 202 209 151 203 215 205 190 192 181 185 195 201 136 145 182 145 177 140 157 152 145 135 146 159 170 158 167 198 221 163 200 204 186 173 185 190 153 151 140 150 143 152 156 148 148
Wind_Speed
10 9 9 12 12 13 14 15 18 20 28 35 22 11 5 4 5 9 13 20 27 35 36 41 48 41 25 18 28 33 10 5 18 22 17 25 22 9 21 24 24 21 21 22 20 20 13 22 34
3 6 9 15 10 11 13 16 18 20 30 33 36 22 14 7 1 5 9 11 24 24 24 31 24 44 40 36 12 23 16 20 26 16 23 20 18 20 15 18 19 20 15 14 18 11 17 17 24
4 5 5 8 10 11 13 12 14 16 23 31 37 31 19 10 5 6 5 9 18 22 25 27 31 20 31 32 33 29 25 27 19 20 13 22 23 14 22 23 21 14 9 15 15 13 14 20 20
9 5 6 6 6 7 11 11 13 22 20 26 29 38 19 12 9 3 5 9 13 24 17 13 30 24 28 35 30 29 29 26 24 20 19 21 19 19 19 18 10 10 13 18 8 13 15 17 20
14 6 2 3 5 7 12 11 14 17 18 26 29 34 30 18 11 7 7 9 12 18 24 25 24 21 16 31 31 32 29 22 26 17 15 19 16 7 7 9 10 8 13 9 9 9 12 18 23
14 11 7 9 7 7 9 12 12 17 16 25 25 32 36 26 13 9 10 10 13 21 24 35 21 24 23 22 19 24 20 20 29 16 14 20 11 9 11 7 12 13 10 10 7 8 12 19 23
11 18 16 13 19 19 7 12 9 14 15 19 25 25 32 34 26 11 12 15 21 30 33 28 24 29 29 33 38 35 32 36 26 23 17 8 10 11 7 2 5 10 5 7 4 10 12 19 24
1 12 10 5 12 2 5 10 11 12 19 17 19 26 26 31 32 11 14 9 13 23 29 32 24 29 19 33 26 32 33 16 31 29 26 18 7 20 7 18 10 6 13 6 6 9 13 18 20
25 12 11 10 12 11 10 5 11 11 17 16 18 22 22 27 33 31 14 12 15 21 18 25 28 30 27 22 36 24 31 31 36 29 29 15 22 9 10 10 9 6 11 8 8 11 14 20 22
20 15 11 17 16 12 7 9 8 10 10 18 16 17 21 24 25 33 28 10 6 8 13 21 36 32 34 29 33 31 28 37 36 22 24 18 26 16 14 12 12 13 14 11 11 12 16 21 25
24 14 19 24 8 21 20 11 4 8 9 18 16 15 17 20 22 24 27 25 2 4 22 26 25 33 31 37 36 37 33 40 29 29 22 21 21 22 13 16 13 16 13 13 14 15 16 21 20
33 21 18 32 19 20 18 14 3 10 8 13 16 16 16 18 20 24 25 24 6 8 13 5 20 30 34 41 35 43 26 41 24 33 23 30 17 23 21 15 18 20 15 15 15 20 17 22 20
39 33 16 28 36 21 29 23 10 5 8 9 16 15 14 18 17 21 23 22 24 10 14 13 12 24 29 27 32 31 39 33 26 33 34 32 28 20 23 21 21 23 19 17 17 21 21 19 18
32 33 36 23 21 24 14 11 13 9 11 6 12 11 12 16 13 17 20 21 19 18 15 23 17 22 39 40 34 43 43 38 42 33 29 31 28 27 21 23 25 22 21 20 17 17 19 19 18
32 43 41 30 27 20 21 8 23 16 5 14 6 10 10 9 15 13 15 18 20 19 12 18 32 15 43 24 26 41 26 38 42 16 40 28 24 11 25 25 29 24 23 20 18 20 22 21 21
21 36 36 45 32 27 33 20 16 13 11 15 19 11 12 10 12 13 13 14 15 16 22 7 22 32 27 33 29 45 41 44 41 36 32 20 26 26 26 29 29 27 25 17 20 20 21 18 21
24 27 35 38 44 37 35 38 21 20 24 20 21 14 14 11 9 11 11 13 13 13 16 19 3 25 31 35 46 32 43 26 29 38 29 27 25 27 28 28 31 28 27 22 22 22 17 18 19
27 25 33 34 45 40 39 38 27 23 19 19 25 20 18 12 9 8 11 11 14 12 13 14 11 5 26 28 30 29 46 46 37 36 41 36 31 29 30 32 34 29 29 25 24 22 20 26 23
28 29 27 32 34 43 44 41 40 30 27 25 23 26 20 16 4 10 8 11 13 13 12 17 17 14 2 23 29 28 28 42 37 37 33 33 33 31 32 33 36 32 26 27 27 26 29 31 25
32 28 27 29 31 35 42 41 42 37 31 29 25 26 18 18 18 11 10 9 10 13 13 14 19 21 7 4 18 30 33 33 27 32 34 33 35 36 36 31 39 37 30 29 28 28 25 24 26
37 31 28 29 31 31 38 39 35 43 36 30 28 26 26 19 21 8 10 7 7 12 13 14 18 19 15 4 8 20 32 39 37 35 37 39 37 37 37 36 39 36 36 30 30 29 25 24 22
40 38 34 34 31 31 35 35 41 44 41 33 32 27 25 27 24 21 8 9 9 10 11 13 10 14 21 8 3 9 11 19 38 40 37 40 38 37 37 39 37 36 37 33 25 25 24 27 25
37 41 42 38 33 32 34 35 38 41 41 35 34 31 29 30 28 22 13 10 10 10 10 12 7 13 20 10 3 4 3 17 33 34 37 39 39 38 37 38 36 31 36 33 30 22 21 27 27
37 40 43 44 37 33 34 34 34 37 42 38 38 34 30 29 32 24 24 16 10 9 9 11 11 3 8 18 11 3 6 5 17 37 36 40 41 38 39 39 40 37 40 36 27 25 23 25 25
41 40 42 44 45 42 34 37 33 34 37 42 41 38 33 28 36 30 28 17 9 8 9 9 10 8 4 8 13 1 8 10 25 23 38 41 36 39 38 38 42 41 41 38 26 27 28 25 32
38 41 42 44 46 50 39 42 30 33 34 38 42 37 37 35 37 32 22 20 17 12 9 10 10 9 6 2 7 8 6 13 24 30 40 43 36 42 37 39 46 42 42 41 36 31 32 34 29
44 45 47 43 45 45 48 52 36 40 31 33 37 40 44 42 35 38 27 22 18 22 12 13 11 14 9 8 4 7 4 11 23 8 34 44 37 41 41 42 53 46 41 23 35 34 34 31 29
39 42 46 45 46 45 50 45 49 40 36 33 33 38 42 38 37 40 36 33 24 20 20 14 15 16 13 10 10 6 9 11 16 23 23 32 39 42 43 48 55 50 39 28 35 37 36 33 31
39 41 44 47 43 41 47 47 51 45 38 37 32 32 37 36 42 35 44 38 28 31 32 23 14 18 16 13 11 11 5 15 16 23 26 27 33 40 39 52 53 51 42 25 30 35 36 35 33
38 42 42 48 45 45 32 48 45 44 41 40 35 34 33 35 40 41 39 38 41 26 38 31 24 16 18 17 14 14 11 9 15 18 26 28 35 34 34 53 46 47 41 40 38 38 37 35 36
Wind_Direction
25 3 18 15 9 7 3 4 23 5 18 20 15 23 11 253 257 206 234 233 223 219 215 215 217 221 205 211 217 231 235 332 238 247 261 268 277 350 287 290 292 297 298 324 351 342 11 340 28
322 359 14 25 1 357 358 359 17 2 19 22 23 23 26 23 293 225 212 205 205 203 194 201 205 223 215 218 217 212 227 216 231 253 251 260 257 273 320 306 308 317 314 344 350 12 356 14 31
267 345 351 354 339 356 357 337 8 7 5 28 25 26 24 24 42 82 138 154 188 175 201 202 189 206 213 206 211 212 209 209 201 221 218 225 241 304 275 282 295 306 354 9 0 11 66 58 31
302 310 349 323 0 25 337 355 7 14 9 12 28 28 28 21 23 26 105 136 157 197 202 235 204 189 206 207 198 201 197 206 218 200 214 215 243 242 287 283 324 312 10 345 38 16 75 42 34
289 274 8 291 323 346 340 359 353 6 18 3 26 27 31 29 27 50 90 31 157 179 195 197 200 207 211 192 196 189 203 209 199 233 262 216 287 228 277 309 312 6 1 353 33 46 57 38 36
281 267 276 290 285 332 343 342 354 11 16 357 4 26 30 35 30 46 99 123 154 158 166 164 186 185 175 160 210 182 207 211 212 239 219 208 189 253 267 273 289 328 349 22 83 83 67 46 45
286 282 291 273 291 291 359 338 21 15 11 4 8 12 27 29 35 56 77 122 126 154 160 187 188 180 158 165 175 197 201 191 211 192 237 151 154 252 233 246 301 305 347 125 93 93 75 56 61
101 255 267 261 267 356 348 329 341 1 4 357 1 20 20 22 31 81 52 99 137 146 168 186 186 182 189 192 197 196 183 216 193 203 179 235 330 227 253 252 275 262 163 100 139 113 84 60 55
273 244 262 263 256 236 294 336 341 347 359 356 352 1 4 22 19 33 53 90 126 151 161 188 191 188 177 187 177 193 186 199 180 211 201 245 216 255 239 242 226 220 158 151 139 101 78 65 62
261 256 263 271 253 249 287 295 359 335 350 345 356 357 358 18 19 24 32 72 129 131 183 186 193 193 189 181 177 186 197 180 189 220 204 237 207 207 214 223 212 194 160 160 139 108 74 82 81
265 254 269 234 249 265 273 284 26 325 334 339 345 0 4 358 15 21 25 27 113 85 171 172 185 193 192 192 172 179 198 186 209 212 208 233 204 202 207 196 201 174 162 155 135 102 84 96 86
271 270 256 268 273 261 270 247 311 309 325 338 340 345 350 14 1 22 28 25 98 194 183 170 184 173 178 170 184 182 201 197 225 225 228 214 222 207 202 198 186 172 171 158 137 109 80 104 88
266 267 247 255 266 253 263 252 277 301 299 333 325 335 352 352 11 7 26 28 26 186 206 195 193 185 183 188 199 204 192 199 225 212 215 221 196 209 196 195 186 173 167 163 154 120 119 104 91
262 267 266 248 252 248 254 251 240 269 296 308 317 310 331 350 13 9 8 27 29 25 205 207 196 189 183 190 202 204 208 205 204 223 222 206 206 204 195 198 189 172 169 161 150 128 122 101 109
240 256 263 257 258 248 226 237 242 248 257 284 315 290 311 328 340 4 8 19 19 25 224 208 202 219 192 222 218 201 216 208 208 225 217 211 209 193 197 195 190 176 171 172 150 132 125 121 112
250 234 253 258 251 244 231 246 254 258 253 272 264 291 283 303 332 335 359 16 20 7 23 83 218 211 223 223 226 208 213 215 218 219 220 206 203 202 205 195 189 179 173 173 144 141 126 118 128
250 239 224 246 240 245 240 245 243 244 261 254 272 269 271 286 295 335 347 352 23 24 19 20 19 223 214 216 218 226 223 215 223 225 213 205 201 209 208 204 191 183 176 176 150 142 135 131 134
254 243 236 232 237 235 243 246 240 247 238 248 260 255 261 274 287 315 341 339 3 14 12 18 28 25 223 223 218 225 218 220 217 218 225 220 199 210 210 208 191 187 178 180 159 151 140 133 142
254 256 245 240 236 235 235 244 248 238 236 240 246 257 244 265 294 291 345 340 337 350 1 8 11 23 173 227 227 220 221 215 213 219 203 206 204 210 218 206 194 189 188 185 164 154 148 142 144
253 252 253 250 242 239 236 234 244 247 242 237 244 247 251 259 260 273 278 322 341 334 342 9 6 6 2 207 222 219 215 213 210 209 207 193 200 208 214 207 195 191 192 186 172 164 158 156 149
250 248 245 248 245 239 239 237 236 244 239 227 233 236 247 252 252 256 272 292 337 322 332 0 1 3 1 313 233 229 214 214 206 203 199 197 203 206 209 199 197 190 190 186 176 170 161 165 161
248 247 242 240 243 241 236 230 230 235 238 236 230 231 240 240 249 254 259 274 284 298 323 345 2 9 7 339 283 238 226 232 209 202 202 205 203 204 203 194 195 188 189 187 185 174 169 168 168
248 245 244 242 240 243 246 235 228 236 237 234 220 234 236 236 239 243 240 259 273 289 313 331 354 15 5 353 340 137 172 213 201 199 202 203 199 198 193 186 191 186 188 192 188 183 176 174 172
247 244 242 242 239 237 245 244 235 231 235 235 234 230 236 234 233 239 243 251 266 277 302 324 338 41 27 14 350 192 158 186 209 189 197 199 196 195 191 183 188 187 191 192 188 193 186 178 174
246 244 242 240 240 236 232 238 241 235 231 232 231 230 228 225 230 236 240 233 236 262 286 305 311 322 313 27 9 270 170 169 192 189 197 196 194 192 191 189 188 184 189 186 186 192 195 186 176
256 241 242 239 237 238 233 238 223 236 236 230 229 232 230 227 225 232 227 236 239 241 262 278 291 289 304 260 16 322 201 173 177 202 196 196 197 194 188 191 188 185 188 195 196 192 197 186 189
258 242 237 239 239 238 236 238 227 231 229 238 232 229 231 228 231 231 229 225 232 248 242 267 273 278 291 251 273 352 284 207 204 263 199 204 202 197 190 191 188 188 200 196 189 190 196 196 193
249 250 236 236 238 236 239 239 237 236 236 233 235 232 231 234 233 227 234 240 237 232 246 242 260 266 271 281 263 250 246 231 214 219 214 211 213 203 190 189 187 190 205 199 192 185 196 203 199
250 250 240 235 237 235 239 239 235 236 239 237 228 234 235 237 235 235 226 236 234 247 248 241 227 255 262 265 281 235 295 223 219 213 211 210 215 208 201 189 187 190 206 223 207 192 196 206 204
252 249 245 232 234 234 238 240 239 235 235 237 227 231 237 238 239 231 237 236 233 234 244 249 241 231 254 256 253 250 244 287 225 238 211 207 198 206 215 192 192 193 206 202 208 200 202 211 215